Terug naar catalogus

STARLINK-37403

ActiefCommunicatieSSO
NORAD 68788·PAYLOAD·🇺🇸 United States

Gelanceerd Apr 19, 2026 vanaf Vandenberg Space Force Base

Loading…

Volgende Passages (komende 24 uur)

TLE

VersSource: CelesTrak SupGP

Epoch: Sep 14, 2026, 22:45 UTC

1 68788C 26086Y   26257.94840278  .00033555  00000+0  10417-2 0  2575
2 68788  97.2846 293.5222 0001096  95.2384  75.1048 15.33418556    14

Volg STARLINK-37403 in realtime met AllMySat

Download on the App Store